M0JUI-1 Weather Reports


time (UTC)temp
F
wind
direction
speed
knots
gust
knots
rain 1hr
in
rain 24hr
in
rain mn
in
humidity
%
barometer
mb
20260506002839 45 152 0.0 0.0 0.00 0.00 0.00 3 1015.8
20260506002339 45 156 0.0 0.0 0.00 0.00 0.00 3 1015.8
20260506001827 45 91 0.0 0.0 0.00 0.00 0.00 3 1015.7
20260506001327 45 76 0.0 0.0 0.00 0.00 0.00 3 1015.6
20260506000827 45 151 0.0 0.0 0.00 0.00 0.00 3 1015.6
20260506000315 45 112 0.0 0.0 0.00 0.00 0.00 3 1015.6
20260505235815 45 80 0.0 0.0 0.00 0.00 0.00 3 1015.7
20260505235315 45 125 0.0 0.0 0.00 0.00 0.00 3 1015.7
20260505234803 45 176 0.0 0.0 0.00 0.00 0.00 3 1015.7
20260505234303 45 108 0.0 0.0 0.00 0.00 0.00 3 1015.7
20260505233803 45 129 0.0 0.0 0.00 0.00 0.00 3 1015.6
20260505233251 45 66 0.0 0.0 0.00 0.00 0.00 3 1015.6
20260505232751 45 89 0.0 0.0 0.00 0.00 0.00 3 1015.7
20260505232251 46 134 0.0 0.0 0.00 0.00 0.00 3 1015.7
20260505231739 46 78 0.0 0.0 0.00 0.00 0.00 3 1015.7
20260505231239 46 101 0.0 0.0 0.00 0.00 0.00 3 1015.7
20260505230739 46 56 0.0 0.0 0.00 0.00 0.00 3 1015.6
20260505230239 46 104 0.0 0.0 0.00 0.00 0.00 3 1015.5
20260505225739 46 94 0.0 0.0 0.00 0.00 0.00 3 1015.8
20260505225239 46 84 0.0 0.0 0.00 0.00 0.00 3 1015.7
20260505224739 46 112 0.0 0.0 0.00 0.00 0.00 3 1015.7
20260505224239 46 85 0.0 0.0 0.00 0.00 0.00 3 1015.8
20260505223739 46 132 0.0 0.0 0.00 0.00 0.00 2 1015.7
20260505223240 46 127 0.0 0.0 0.00 0.00 0.00 2 1015.8
20260505222739 46 123 0.0 0.0 0.00 0.00 0.00 2 1015.7
20260505222240 46 110 0.0 0.0 0.00 0.00 0.00 2 1015.6
20260505221739 46 85 0.0 0.0 0.00 0.00 0.00 2 1015.6
20260505221239 46 133 0.0 0.0 0.00 0.00 0.00 1 1015.6
20260505220739 46 41 0.0 0.0 0.00 0.00 0.00 1 1015.6
20260505220239 47 97 0.0 0.0 0.00 0.00 0.00 1 1015.4
20260505215739 47 99 0.0 0.0 0.00 0.00 0.00 1 1015.6
20260505215239 47 135 0.0 0.0 0.00 0.00 0.00 1 1015.5
20260505214739 47 118 0.0 0.0 0.00 0.00 0.00 1 1015.5
20260505214239 47 88 0.0 0.0 0.00 0.00 0.00 1 1015.6
20260505213739 47 127 0.0 0.0 0.00 0.00 0.00 1 1015.4
20260505213238 47 125 0.0 0.0 0.00 0.00 0.00 1 1015.6
20260505212739 47 38 0.0 0.0 0.00 0.00 0.00 1 1015.4
20260505212228 47 89 0.0 0.0 0.00 0.00 0.00 1 1015.5
20260505211726 47 63 0.0 0.0 0.00 0.00 0.00 1 1015.5
20260505211227 47 76 0.0 0.0 0.00 0.00 0.00 1 1015.6
20260505210727 48 105 0.0 0.0 0.00 0.00 0.00 1 1015.7
20260505210227 48 83 0.0 0.0 0.00 0.00 0.00 1 1015.6
20260505205727 48 65 0.0 0.0 0.00 0.00 0.00 1 1015.5
20260505205227 48 105 0.0 0.0 0.00 0.00 0.00 1 1015.5
20260505204715 48 82 0.0 0.0 0.00 0.00 0.00 1 1015.4
20260505204215 49 98 0.0 0.0 0.00 0.00 0.00 1 1015.3
20260505203715 49 108 0.0 0.0 0.00 0.00 0.00 1 1015.4
20260505203203 49 45 0.0 0.0 0.00 0.00 0.00 1 1015.3
20260505202703 49 72 0.0 0.0 0.00 0.00 0.00 1 1015.2
20260505202139 49 130 0.0 0.0 0.00 0.00 0.00 1 1015.1
20260505201639 50 150 0.0 0.0 0.00 0.00 0.00 1 1015.0
20260505201139 50 90 0.0 0.0 0.00 0.00 0.00 1 1015.1
20260505200639 50 69 0.0 0.0 0.00 0.00 0.00 1 1015.2
20260505200139 50 105 0.0 0.0 0.00 0.00 0.00 1 1015.1
20260505195639 50 109 0.0 0.0 0.00 0.00 0.00 1 1015.0
20260505195139 50 89 0.0 0.0 0.00 0.00 0.00 1 1015.0
20260505194639 50 49 0.0 0.0 0.00 0.00 0.00 1 1015.1
20260505194139 50 288 0.0 0.0 0.00 0.00 0.00 1 1015.0
20260505193639 50 349 0.0 0.0 0.00 0.00 0.00 1 1014.9
20260505193139 50 98 0.0 0.0 0.00 0.00 0.00 1 1014.8
20260505192639 50 262 0.0 0.0 0.00 0.00 0.00 1 1015.0
20260505192139 50 262 0.0 0.0 0.00 0.00 0.00 1 1014.7
20260505191639 51 83 0.0 0.0 0.00 0.00 0.00 1 1014.7
20260505191139 51 59 0.0 0.0 0.00 0.00 0.00 1 1014.6
20260505190639 51 67 0.0 0.0 0.00 0.00 0.00 1 1014.5
20260505190140 51 263 0.0 0.0 0.00 0.00 0.00 1 1014.4
20260505185639 51 36 0.0 0.0 0.00 0.00 0.00 1 1014.5
20260505185140 51 247 0.0 0.0 0.00 0.00 0.00 1 1014.5
20260505184627 51 308 0.0 0.0 0.00 0.00 0.00 1 1014.6
20260505184127 51 142 0.0 0.0 0.00 0.00 0.00 1 1014.5
20260505183627 52 239 0.0 0.0 0.00 0.00 0.00 1 1014.6
20260505183127 52 350 0.0 0.0 0.00 0.00 0.00 1 1014.2
20260505182627 52 338 0.0 0.0 0.00 0.00 0.00 1 1014.4
20260505182127 52 133 0.0 0.0 0.00 0.00 0.00 1 1014.4
20260505181627 52 299 0.0 0.0 0.00 0.00 0.00 1 1014.5
20260505181127 52 309 0.0 0.0 0.00 0.00 0.00 1 1014.5
20260505180626 52 58 0.0 0.0 0.00 0.00 0.00 1 1014.6
20260505180116 52 110 0.0 0.0 0.00 0.00 0.00 1 1014.5
20260505175603 53 247 0.0 0.0 0.00 0.00 0.00 99 1014.3
20260505175107 52 76 0.0 0.0 0.00 0.00 0.00 99 1014.4
20260505174604 53 7 0.0 0.0 0.00 0.00 0.00 99 1014.3
20260505174052 53 250 0.0 0.0 0.00 0.00 0.00 99 1014.4
20260505173551 52 325 0.0 0.0 0.00 0.00 0.00 99 1014.3
20260505173051 53 284 0.0 0.0 0.00 0.00 0.00 99 1014.5
20260505172540 53 32 0.0 0.0 0.00 0.00 0.00 99 1014.5
20260505172039 53 63 0.0 0.0 0.00 0.00 0.00 99 1014.4
20260505171539 53 272 0.0 0.0 0.00 0.00 0.00 99 1014.4
20260505171028 52 300 0.0 0.0 0.00 0.00 0.00 99 1014.5
20260505170527 52 248 0.0 0.0 0.00 0.00 0.00 1 1014.4
20260505170028 52 288 0.0 0.0 0.00 0.00 0.00 1 1014.6
20260505165527 52 216 0.0 0.0 0.00 0.00 0.00 1 1014.6
20260505165027 52 300 0.0 0.0 0.00 0.00 0.00 1 1014.6
20260505164527 52 246 0.0 0.0 0.00 0.00 0.00 1 1014.5
20260505164027 52 315 0.0 0.0 0.00 0.00 0.00 1 1014.6
20260505163527 52 279 0.0 0.0 0.00 0.00 0.00 1 1014.7
20260505163027 51 251 0.0 0.0 0.00 0.00 0.00 99 1014.5
20260505162527 52 303 0.0 0.0 0.00 0.00 0.00 99 1014.6
20260505162027 52 275 0.0 0.0 0.00 0.00 0.00 99 1014.7
20260505161527 52 256 0.0 0.0 0.00 0.00 0.00 99 1014.8
20260505161027 52 299 0.0 0.0 0.00 0.00 0.00 99 1014.6
20260505160527 52 298 0.0 0.0 0.00 0.00 0.00 99 1014.8
20260505153029 52 8 0.0 0.0 0.00 0.00 0.00 99 1014.8
20260505152527 52 277 0.0 0.0 0.00 0.00 0.00 99 1014.8
20260505152027 52 290 0.0 0.0 0.00 0.00 0.00 99 1014.7
20260505151527 52 296 0.0 0.0 0.00 0.00 0.00 99 1014.7
20260505151029 53 320 0.0 0.0 0.00 0.00 0.00 99 1014.5
20260505150527 53 106 0.0 0.0 0.00 0.00 0.00 99 1014.8
20260505140527 52 28 0.0 0.0 0.00 0.00 0.00 99 1015.0
20260505125027 53 264 0.0 0.0 0.00 0.00 0.00 99 1014.9
20260505124527 53 34 0.0 0.0 0.00 0.00 0.00 99 1014.7
20260505124027 53 335 0.0 0.0 0.00 0.00 0.00 99 1014.8
20260505123515 53 324 0.0 0.0 0.00 0.00 0.00 99 1015.0
20260505123016 52 283 0.0 0.0 0.00 0.00 0.00 99 1014.9
20260505122515 52 17 0.0 0.0 0.00 0.00 0.00 99 1014.8
20260505122009 52 0 0.0 0.0 0.00 0.00 0.00 99 1014.8
20260505121503 52 262 0.0 0.0 0.00 0.00 0.00 99 1014.9
20260505121005 52 5 0.0 0.0 0.00 0.00 0.00 99 1014.9
20260505120451 52 231 0.0 0.0 0.00 0.00 0.00 99 1014.8
20260505115951 53 207 0.0 0.0 0.00 0.00 0.00 99 1014.9
20260505115451 53 345 0.0 0.0 0.00 0.00 0.00 99 1014.8
20260505114939 54 53 0.0 0.0 0.00 0.00 0.00 99 1014.8
20260505114439 54 306 0.0 0.0 0.00 0.00 0.00 99 1014.9
20260505113939 54 218 0.0 0.0 0.00 0.00 0.00 99 1015.0
20260505113439 54 53 0.0 0.0 0.00 0.00 0.00 99 1015.0
20260505112939 54 300 0.0 0.0 0.00 0.00 0.00 99 1014.8
20260505112440 54 259 0.0 0.0 0.00 0.00 0.00 99 1014.9
20260505111940 54 330 0.0 0.0 0.00 0.00 0.00 99 1015.1
20260505111427 54 276 0.0 0.0 0.00 0.00 0.00 99 1015.0
20260505110927 54 197 0.0 0.0 0.00 0.00 0.00 99 1015.2
20260505110427 55 316 0.0 0.0 0.00 0.00 0.00 99 1015.1
20260505101927 53 269 0.0 0.0 0.00 0.00 0.00 99 1015.2
20260505101427 53 2 0.0 0.0 0.00 0.00 0.00 99 1015.3
20260505100927 55 185 0.0 0.0 0.00 0.00 0.00 99 1015.2
20260505100427 53 304 0.0 0.0 0.00 0.00 0.00 99 1015.3
20260505095927 52 67 0.0 0.0 0.00 0.00 0.00 99 1015.2
20260505095429 54 268 0.0 0.0 0.00 0.00 0.00 99 1015.3
20260505094927 53 235 0.0 0.0 0.00 0.00 0.00 99 1015.1
20260505094427 53 286 0.0 0.0 0.00 0.00 0.00 99 1015.3
20260505093927 54 19 0.0 0.0 0.00 0.00 0.00 99 1015.3
20260505093427 53 17 0.0 0.0 0.00 0.00 0.00 99 1015.2
20260505092927 52 332 0.0 0.0 0.00 0.00 0.00 99 1015.3
20260505092427 51 0 0.0 0.0 0.00 0.00 0.00 99 1015.1
20260505091927 52 71 0.0 0.0 0.00 0.00 0.00 99 1015.1
20260505091427 52 321 0.0 0.0 0.00 0.00 0.00 99 1015.0
20260505090927 52 84 0.0 0.0 0.00 0.00 0.00 99 1015.0
20260505090428 53 93 0.0 0.0 0.00 0.00 0.00 99 1015.2
20260505085927 53 92 0.0 0.0 0.00 0.00 0.00 99 1015.1
20260505085427 54 61 0.0 0.0 0.00 0.00 0.00 99 1015.2
20260505084927 52 333 0.0 0.0 0.00 0.00 0.00 99 1015.4
20260505084427 52 93 0.0 0.0 0.00 0.00 0.00 99 1015.2
20260505083927 53 297 0.0 0.0 0.00 0.00 0.00 99 1015.3
20260505083427 52 159 0.0 0.0 0.00 0.00 0.00 99 1015.4
20260505082927 52 357 0.0 0.0 0.00 0.00 0.00 1 1015.2
20260505082427 52 179 0.0 0.0 0.00 0.00 0.00 1 1015.4
20260505081927 52 109 0.0 0.0 0.00 0.00 0.00 1 1015.3
20260505081427 52 266 0.0 0.0 0.00 0.00 0.00 1 1015.5
20260505080927 51 72 0.0 0.0 0.00 0.00 0.00 1 1015.4
20260505080427 50 52 0.0 0.0 0.00 0.00 0.00 1 1015.1
20260505075927 51 63 0.0 0.0 0.00 0.00 0.00 1 1015.5
20260505075427 51 208 0.0 0.0 0.00 0.00 0.00 1 1015.4
20260505074927 50 243 0.0 0.0 0.00 0.00 0.00 1 1015.4
20260505074426 50 7 0.0 0.0 0.00 0.00 0.00 1 1015.5
20260505073927 50 78 0.0 0.0 0.00 0.00 0.00 1 1015.3
20260505073427 51 350 0.0 0.0 0.00 0.00 0.00 1 1015.4
20260505072928 50 111 0.0 0.0 0.00 0.00 0.00 1 1015.3
20260505072426 49 104 0.0 0.0 0.00 0.00 0.00 1 1015.4
20260505071928 49 256 0.0 0.0 0.00 0.00 0.00 1 1015.2
20260505071427 48 210 0.0 0.0 0.00 0.00 0.00 99 1015.4
20260505070927 48 289 0.0 0.0 0.00 0.00 0.00 99 1015.4
20260505070427 48 231 0.0 0.0 0.00 0.00 0.00 99 1015.4
20260505065927 48 284 0.0 0.0 0.00 0.00 0.00 99 1015.5
20260505065427 48 272 0.0 0.0 0.00 0.00 0.00 99 1015.3
20260505064927 48 325 0.0 0.0 0.00 0.00 0.00 99 1015.5
20260505064427 47 248 0.0 0.0 0.00 0.00 0.00 99 1015.6
20260505063927 47 322 0.0 0.0 0.00 0.00 0.00 99 1015.6
20260505063426 47 323 0.0 0.0 0.00 0.00 0.00 99 1015.6
20260505062927 47 279 0.0 0.0 0.00 0.00 0.00 99 1015.5
20260505062427 46 353 0.0 0.0 0.00 0.00 0.00 99 1015.5
20260505061927 46 319 0.0 0.0 0.00 0.00 0.00 99 1015.3
20260505061427 46 301 0.0 0.0 0.00 0.00 0.00 99 1015.3
20260505060927 46 359 0.0 0.0 0.00 0.00 0.00 99 1015.6
20260505060427 45 337 0.0 0.0 0.00 0.00 0.00 99 1015.3
20260505055927 45 321 0.0 0.0 0.00 0.00 0.00 99 1015.3
20260505055427 44 19 0.0 0.0 0.00 0.00 0.00 99 1015.3
20260505054927 44 34 0.0 0.0 0.00 0.00 0.00 1 1015.5
20260505054427 44 293 0.0 0.0 0.00 0.00 0.00 1 1015.4
20260505053927 44 284 0.0 0.0 0.00 0.00 0.00 1 1015.4
20260505053427 43 306 0.0 0.0 0.00 0.00 0.00 1 1015.5
20260505052927 43 316 0.0 0.0 0.00 0.00 0.00 1 1015.4
20260505052427 43 277 0.0 0.0 0.00 0.00 0.00 1 1015.6
20260505051927 43 336 0.0 0.0 0.00 0.00 0.00 1 1015.6
20260505051427 42 308 0.0 0.0 0.00 0.00 0.00 1 1015.6
20260505050927 42 304 0.0 0.0 0.00 0.00 0.00 1 1015.5
20260505050427 42 285 0.0 0.0 0.00 0.00 0.00 1 1015.5
20260505041428 42 301 0.0 0.0 0.00 0.00 0.00 1 1015.2
20260505040928 42 335 0.0 0.0 0.00 0.00 0.00 1 1015.2
20260505040427 42 328 0.0 0.0 0.00 0.00 0.00 1 1015.2
20260505035915 42 316 0.0 0.0 0.00 0.00 0.00 1 1015.1
20260505035415 42 282 0.0 0.0 0.00 0.00 0.00 1 1015.1
20260505034915 42 317 0.0 0.0 0.00 0.00 0.00 1 1015.2
20260505034404 42 280 0.0 0.0 0.00 0.00 0.00 1 1015.1
20260505033903 42 285 0.0 0.0 0.00 0.00 0.00 1 1015.2
20260505033403 42 288 0.0 0.0 0.00 0.00 0.00 1 1015.2
20260505032851 42 302 0.0 0.0 0.00 0.00 0.00 1 1015.1
20260505032351 42 284 0.0 0.0 0.00 0.00 0.00 1 1015.3
20260505031851 42 296 0.0 0.0 0.00 0.00 0.00 1 1015.2
20260505031339 42 300 0.0 0.0 0.00 0.00 0.00 1 1015.2
20260505030839 43 320 0.0 0.0 0.00 0.00 0.00 1 1015.2
20260505030344 43 276 0.0 0.0 0.00 0.00 0.00 1 1015.2
20260505025839 43 291 0.0 0.0 0.00 0.00 0.00 1 1015.2
20260505025339 43 318 0.0 0.0 0.00 0.00 0.00 1 1015.0
20260505024839 43 279 0.0 0.0 0.00 0.00 0.00 2 1015.3
20260505024339 43 315 0.0 0.0 0.00 0.00 0.00 2 1015.2
20260505023827 43 267 0.0 0.0 0.00 0.00 0.00 2 1015.3
20260505023327 43 291 0.0 0.0 0.00 0.00 0.00 3 1015.3
20260505022828 43 324 0.0 0.0 0.00 0.00 0.00 3 1015.3
20260505022315 42 298 0.0 0.0 0.00 0.00 0.00 4 1015.3
20260505021815 42 334 0.0 0.0 0.00 0.00 0.00 4 1015.4
20260505021315 41 338 0.0 0.0 0.00 0.00 0.00 5 1015.3
20260505020803 42 292 0.0 0.0 0.00 0.00 0.00 5 1015.5
20260505020303 42 291 0.0 0.0 0.00 0.00 0.00 5 1015.6
20260505015803 42 300 0.0 0.0 0.00 0.00 0.00 5 1015.4
20260505015251 43 281 0.0 0.0 0.00 0.00 0.00 5 1015.5
20260505014751 43 277 0.0 0.0 0.00 0.00 0.00 5 1015.7
20260505014251 43 276 0.0 0.0 0.00 0.00 0.00 6 1015.7
20260505013739 43 266 0.0 0.0 0.00 0.00 0.00 6 1015.6
20260505013239 43 273 0.0 0.0 0.00 0.00 0.00 6 1015.8
20260505012739 43 277 0.0 0.0 0.00 0.00 0.00 7 1015.7
20260505012239 43 287 0.0 0.0 0.00 0.00 0.00 8 1015.8
20260505011739 43 274 0.0 0.0 0.00 0.00 0.00 8 1015.9
20260505011239 44 286 0.0 0.0 0.00 0.00 0.00 9 1015.7
20260505010739 44 277 0.0 0.0 0.00 0.00 0.00 10 1015.8
20260505010240 44 252 0.0 0.0 0.00 0.00 0.00 10 1015.9
20260505005739 44 307 0.0 0.0 0.00 0.00 0.00 11 1016.1
20260505005239 44 307 0.0 0.0 0.00 0.00 0.00 12 1016.0
20260505004740 44 209 0.0 0.0 0.00 0.00 0.00 12 1015.8
20260505004240 44 319 0.0 0.0 0.00 0.00 0.00 12 1015.9
20260505003739 44 275 0.0 0.0 0.00 0.00 0.00 13 1015.7
20260505003240 44 263 0.0 0.0 0.00 0.00 0.00 14 1016.0